Location: Walton
(43.6794°N, 81.3017°W)
Time: 02:39:40
(UTC+00:00)

Meteor 2-2 Rocket - Pass Details

Date: 09 December 2025
Orbit: 852 x 927 km, 81.3° (Epoch: 24 January)

Event Time Altitude Azimuth Distance (km) Brightness Sun altitude
Rises 11:05:38 0° 349° (N) 3,447 7.1 -17.7°
Reaches altitude 10° 11:08:03 10° 350° (N) 2,513 6.4 -17.2°
Maximum altitude 11:13:46 90° 77° (ENE) 880 4.2 -16.2°
Drops below altitude 10° 11:19:34 10° 172° (S) 2,542 7.0 -15.2°
Sets 11:22:01 0° 172° (S) 3,489 7.8 -14.8°
